Voltar ao catálogo

DELTA 1 DEB

AtivoPO
NORAD 19594·DEBRIS·🇺🇸 United States

Lançado Mar 5, 1978 de Vandenberg Space Force Base

Loading…

Próximas Passagens (próximas 24 horas)

TLE

AtualizadoSource: Space-Track

Época: Sep 13, 2026, 10:22 UTC

1 19594U 78026HN  26256.43198215  .00007664  00000-0  16880-2 0  9993
2 19594  98.8737 323.7036 0065795 236.0547 123.4383 14.56382094719020

Acompanhe DELTA 1 DEB em tempo real com AllMySat

Download on the App Store